Time,TemperatureF,DewpointF,PressureIn,WindDirection,WindDirectionDegrees,WindSpeedMPH,WindSpeedGustMPH,Humidity,HourlyPrecipIn,Conditions,Clouds,dailyrainin,SolarRadiationWatts/m^2,SoftwareType,DateUTC
2013-01-17 00:12:00,27.0,14.0,-100.00,South,181,6.0,9.0,58,0.00,,,0.00,0.000000,,2013-01-17 07:12:00,
2013-01-17 00:22:00,27.0,14.0,-100.00,South,181,6.0,9.0,58,0.00,,,0.00,0.000000,,2013-01-17 07:22:00,
2013-01-17 00:32:00,27.0,14.0,-100.00,South,181,6.0,9.0,58,0.00,,,0.00,0.000000,,2013-01-17 07:32:00,
2013-01-17 00:42:00,27.0,14.0,-100.00,South,181,6.0,9.0,58,0.00,,,0.00,0.000000,,2013-01-17 07:42:00,
2013-01-17 00:51:00,25.0,13.0,-100.00,South,184,8.0,10.0,59,0.00,,,0.00,0.000000,,2013-01-17 07:51:00,
2013-01-17 01:12:00,25.0,13.0,-100.00,South,184,8.0,10.0,59,0.00,,,0.00,0.000000,,2013-01-17 08:12:00,
2013-01-17 01:22:00,25.0,13.0,-100.00,South,184,8.0,10.0,59,0.00,,,0.00,0.000000,,2013-01-17 08:22:00,
2013-01-17 01:32:00,25.0,13.0,-100.00,South,184,8.0,10.0,59,0.00,,,0.00,0.000000,,2013-01-17 08:32:00,
2013-01-17 01:43:00,25.0,13.0,-100.00,South,184,8.0,10.0,59,0.00,,,0.00,0.000000,,2013-01-17 08:43:00,
2013-01-17 01:51:00,25.0,12.0,-100.00,South,182,8.0,10.0,58,0.00,,,0.00,0.000000,,2013-01-17 08:51:00,
2013-01-17 02:12:00,25.0,12.0,-100.00,South,182,8.0,10.0,58,0.00,,,0.00,0.000000,,2013-01-17 09:12:00,
2013-01-17 02:22:00,25.0,12.0,-100.00,South,182,8.0,10.0,58,0.00,,,0.00,0.000000,,2013-01-17 09:22:00,
2013-01-17 02:32:00,25.0,12.0,-100.00,South,182,8.0,10.0,58,0.00,,,0.00,0.000000,,2013-01-17 09:32:00,
2013-01-17 02:42:00,25.0,12.0,-100.00,South,182,8.0,10.0,58,0.00,,,0.00,0.000000,,2013-01-17 09:42:00,
2013-01-17 02:51:00,24.0,11.0,-100.00,South,183,8.0,11.0,57,0.00,,,0.00,0.000000,,2013-01-17 09:51:00,
2013-01-17 03:12:00,24.0,11.0,-100.00,South,183,8.0,11.0,57,0.00,,,0.00,0.000000,,2013-01-17 10:12:00,
2013-01-17 03:22:00,24.0,11.0,-100.00,South,183,8.0,11.0,57,0.00,,,0.00,0.000000,,2013-01-17 10:22:00,
2013-01-17 03:32:00,24.0,11.0,-100.00,South,183,8.0,11.0,57,0.00,,,0.00,0.000000,,2013-01-17 10:32:00,
2013-01-17 03:42:00,24.0,11.0,-100.00,South,183,8.0,11.0,57,0.00,,,0.00,0.000000,,2013-01-17 10:42:00,
2013-01-17 03:51:00,23.0,10.0,-100.00,South,185,7.0,11.0,58,0.00,,,0.00,0.000000,,2013-01-17 10:51:00,
2013-01-17 04:12:00,23.0,10.0,-100.00,South,185,7.0,11.0,58,0.00,,,0.00,0.000000,,2013-01-17 11:12:00,
2013-01-17 04:22:00,23.0,10.0,-100.00,South,185,7.0,11.0,58,0.00,,,0.00,0.000000,,2013-01-17 11:22:00,
2013-01-17 04:33:00,23.0,10.0,-100.00,South,185,7.0,11.0,58,0.00,,,0.00,0.000000,,2013-01-17 11:33:00,
2013-01-17 04:42:00,23.0,10.0,-100.00,South,185,7.0,11.0,58,0.00,,,0.00,0.000000,,2013-01-17 11:42:00,
2013-01-17 04:51:00,24.0,10.0,-100.00,South,181,9.0,11.0,55,0.00,,,0.00,0.000000,,2013-01-17 11:51:00,
2013-01-17 05:12:00,24.0,10.0,-100.00,South,181,9.0,11.0,55,0.00,,,0.00,0.000000,,2013-01-17 12:12:00,
2013-01-17 05:23:00,24.0,10.0,-100.00,South,181,9.0,11.0,55,0.00,,,0.00,0.000000,,2013-01-17 12:23:00,
2013-01-17 05:33:00,24.0,10.0,-100.00,South,181,9.0,11.0,55,0.00,,,0.00,0.000000,,2013-01-17 12:33:00,
2013-01-17 05:42:00,24.0,10.0,-100.00,South,181,9.0,11.0,55,0.00,,,0.00,0.000000,,2013-01-17 12:42:00,
2013-01-17 05:51:00,25.0,11.0,-100.00,South,183,9.0,12.0,54,0.00,,,0.00,0.000000,,2013-01-17 12:51:00,
2013-01-17 06:12:00,25.0,11.0,-100.00,South,183,9.0,12.0,54,0.00,,,0.00,0.000000,,2013-01-17 13:12:00,
2013-01-17 06:23:00,25.0,11.0,-100.00,South,183,9.0,12.0,54,0.00,,,0.00,0.000000,,2013-01-17 13:23:00,
2013-01-17 06:33:00,25.0,11.0,-100.00,South,183,9.0,12.0,54,0.00,,,0.00,0.000000,,2013-01-17 13:33:00,
2013-01-17 06:43:00,25.0,11.0,-100.00,South,183,9.0,12.0,54,0.00,,,0.00,0.000000,,2013-01-17 13:43:00,
2013-01-17 06:51:00,25.0,10.0,-100.00,South,182,12.0,15.0,53,0.00,,,0.00,0.000000,,2013-01-17 13:51:00,
2013-01-17 07:12:00,25.0,10.0,-100.00,South,182,12.0,15.0,53,0.00,,,0.00,0.000000,,2013-01-17 14:12:00,
2013-01-17 07:23:00,25.0,10.0,-100.00,South,182,12.0,15.0,53,0.00,,,0.00,0.000000,,2013-01-17 14:23:00,
2013-01-17 07:33:00,25.0,10.0,-100.00,South,182,12.0,15.0,53,0.00,,,0.00,0.000000,,2013-01-17 14:33:00,
2013-01-17 07:43:00,25.0,10.0,-100.00,South,182,12.0,15.0,53,0.00,,,0.00,0.000000,,2013-01-17 14:43:00,
2013-01-17 07:51:00,26.0,10.0,-100.00,South,183,12.0,16.0,51,0.00,,,0.00,3.000000,,2013-01-17 14:51:00,
2013-01-17 08:23:00,26.0,10.0,-100.00,South,183,12.0,16.0,51,0.00,,,0.00,3.000000,,2013-01-17 15:23:00,
2013-01-17 08:33:00,26.0,10.0,-100.00,South,183,12.0,16.0,51,0.00,,,0.00,3.000000,,2013-01-17 15:33:00,
2013-01-17 08:43:00,26.0,10.0,-100.00,South,183,12.0,16.0,51,0.00,,,0.00,3.000000,,2013-01-17 15:43:00,
2013-01-17 08:51:00,27.0,10.0,-100.00,South,171,10.0,17.0,49,0.00,,,0.00,79.000000,,2013-01-17 15:51:00,
2013-01-17 09:12:00,27.0,10.0,-100.00,South,171,10.0,17.0,49,0.00,,,0.00,79.000000,,2013-01-17 16:12:00,
2013-01-17 09:23:00,27.0,10.0,-100.00,South,171,10.0,17.0,49,0.00,,,0.00,79.000000,,2013-01-17 16:23:00,
2013-01-17 09:33:00,27.0,10.0,-100.00,South,171,10.0,17.0,49,0.00,,,0.00,79.000000,,2013-01-17 16:33:00,
2013-01-17 09:43:00,27.0,10.0,-100.00,South,171,10.0,17.0,49,0.00,,,0.00,79.000000,,2013-01-17 16:43:00,
2013-01-17 09:51:00,32.0,13.0,-100.00,SSE,168,12.0,16.0,45,0.00,,,0.00,211.000000,,2013-01-17 16:51:00,
2013-01-17 10:13:00,32.0,13.0,-100.00,SSE,168,12.0,16.0,45,0.00,,,0.00,211.000000,,2013-01-17 17:13:00,
2013-01-17 10:23:00,32.0,13.0,-100.00,SSE,168,12.0,16.0,45,0.00,,,0.00,211.000000,,2013-01-17 17:23:00,
2013-01-17 10:33:00,32.0,13.0,-100.00,SSE,168,12.0,16.0,45,0.00,,,0.00,211.000000,,2013-01-17 17:33:00,
2013-01-17 10:43:00,32.0,13.0,-100.00,SSE,168,12.0,16.0,45,0.00,,,0.00,211.000000,,2013-01-17 17:43:00,
2013-01-17 10:51:00,36.0,15.0,-100.00,South,188,12.0,17.0,41,0.00,,,0.00,345.000000,,2013-01-17 17:51:00,
2013-01-17 11:12:00,36.0,15.0,-100.00,South,188,12.0,17.0,41,0.00,,,0.00,345.000000,,2013-01-17 18:12:00,
2013-01-17 11:22:00,36.0,15.0,-100.00,South,188,12.0,17.0,41,0.00,,,0.00,345.000000,,2013-01-17 18:22:00,
2013-01-17 11:33:00,36.0,15.0,-100.00,South,188,12.0,17.0,41,0.00,,,0.00,345.000000,,2013-01-17 18:33:00,
2013-01-17 11:43:00,36.0,15.0,-100.00,South,188,12.0,17.0,41,0.00,,,0.00,345.000000,,2013-01-17 18:43:00,
2013-01-17 11:51:00,37.0,15.0,-100.00,South,185,14.0,18.0,40,0.00,,,0.00,429.000000,,2013-01-17 18:51:00,
2013-01-17 12:12:00,37.0,15.0,-100.00,South,185,14.0,18.0,40,0.00,,,0.00,429.000000,,2013-01-17 19:12:00,
2013-01-17 12:23:00,37.0,15.0,-100.00,South,185,14.0,18.0,40,0.00,,,0.00,429.000000,,2013-01-17 19:23:00,
2013-01-17 12:33:00,37.0,15.0,-100.00,South,185,14.0,18.0,40,0.00,,,0.00,429.000000,,2013-01-17 19:33:00,
2013-01-17 12:43:00,37.0,15.0,-100.00,South,185,14.0,18.0,40,0.00,,,0.00,429.000000,,2013-01-17 19:43:00,
2013-01-17 12:51:00,41.0,19.0,-100.00,South,180,13.0,22.0,40,0.00,,,0.00,414.000000,,2013-01-17 19:51:00,
2013-01-17 13:23:00,41.0,19.0,-100.00,South,180,13.0,22.0,40,0.00,,,0.00,414.000000,,2013-01-17 20:23:00,
2013-01-17 13:33:00,41.0,19.0,-100.00,South,180,13.0,22.0,40,0.00,,,0.00,414.000000,,2013-01-17 20:33:00,
2013-01-17 13:43:00,41.0,19.0,-100.00,South,180,13.0,22.0,40,0.00,,,0.00,414.000000,,2013-01-17 20:43:00,
2013-01-17 13:51:00,42.0,20.0,-100.00,South,179,13.0,16.0,41,0.00,,,0.00,389.000000,,2013-01-17 20:51:00,
2013-01-17 14:23:00,42.0,20.0,-100.00,South,179,13.0,16.0,41,0.00,,,0.00,389.000000,,2013-01-17 21:23:00,
2013-01-17 14:33:00,42.0,20.0,-100.00,South,179,13.0,16.0,41,0.00,,,0.00,389.000000,,2013-01-17 21:33:00,
2013-01-17 14:43:00,42.0,20.0,-100.00,South,179,13.0,16.0,41,0.00,,,0.00,389.000000,,2013-01-17 21:43:00,
2013-01-17 14:51:00,42.0,20.0,-100.00,SSE,168,11.0,14.0,41,0.00,,,0.00,332.000000,,2013-01-17 21:51:00,
2013-01-17 15:12:00,42.0,20.0,-100.00,SSE,168,11.0,14.0,41,0.00,,,0.00,332.000000,,2013-01-17 22:12:00,
2013-01-17 15:23:00,42.0,20.0,-100.00,SSE,168,11.0,14.0,41,0.00,,,0.00,332.000000,,2013-01-17 22:23:00,
2013-01-17 15:33:00,42.0,20.0,-100.00,SSE,168,11.0,14.0,41,0.00,,,0.00,332.000000,,2013-01-17 22:33:00,
2013-01-17 15:43:00,42.0,20.0,-100.00,SSE,168,11.0,14.0,41,0.00,,,0.00,332.000000,,2013-01-17 22:43:00,
2013-01-17 15:51:00,41.0,21.0,-100.00,SSE,163,11.0,16.0,45,0.00,,,0.00,215.000000,,2013-01-17 22:51:00,
2013-01-17 16:12:00,41.0,21.0,-100.00,SSE,163,11.0,16.0,45,0.00,,,0.00,215.000000,,2013-01-17 23:12:00,
2013-01-17 16:22:00,41.0,21.0,-100.00,SSE,163,11.0,16.0,45,0.00,,,0.00,215.000000,,2013-01-17 23:22:00,
2013-01-17 16:33:00,41.0,21.0,-100.00,SSE,163,11.0,16.0,45,0.00,,,0.00,215.000000,,2013-01-17 23:33:00,
2013-01-17 16:43:00,41.0,21.0,-100.00,SSE,163,11.0,16.0,45,0.00,,,0.00,215.000000,,2013-01-17 23:43:00,
2013-01-17 16:51:00,39.0,21.0,-100.00,SSE,161,10.0,15.0,48,0.00,,,0.00,72.000000,,2013-01-17 23:51:00,
2013-01-17 17:23:00,39.0,21.0,-100.00,SSE,161,10.0,15.0,48,0.00,,,0.00,72.000000,,2013-01-18 00:23:00,
2013-01-17 17:32:00,39.0,21.0,-100.00,SSE,161,10.0,15.0,48,0.00,,,0.00,72.000000,,2013-01-18 00:32:00,
2013-01-17 17:42:00,39.0,21.0,-100.00,SSE,161,10.0,15.0,48,0.00,,,0.00,72.000000,,2013-01-18 00:42:00,
2013-01-17 17:51:00,35.0,18.0,-100.00,South,170,12.0,15.0,50,0.00,,,0.00,1.000000,,2013-01-18 00:51:00,
2013-01-17 18:12:00,35.0,18.0,-100.00,South,170,12.0,15.0,50,0.00,,,0.00,1.000000,,2013-01-18 01:12:00,
2013-01-17 18:23:00,35.0,18.0,-100.00,South,170,12.0,15.0,50,0.00,,,0.00,1.000000,,2013-01-18 01:23:00,
2013-01-17 18:33:00,35.0,18.0,-100.00,South,170,12.0,15.0,50,0.00,,,0.00,1.000000,,2013-01-18 01:33:00,
2013-01-17 18:43:00,35.0,18.0,-100.00,South,170,12.0,15.0,50,0.00,,,0.00,1.000000,,2013-01-18 01:43:00,
2013-01-17 18:51:00,35.0,18.0,-100.00,SSE,160,11.0,14.0,50,0.00,,,0.00,0.000000,,2013-01-18 01:51:00,
2013-01-17 19:12:00,35.0,18.0,-100.00,SSE,160,11.0,14.0,50,0.00,,,0.00,0.000000,,2013-01-18 02:12:00,
2013-01-17 19:22:00,35.0,18.0,-100.00,SSE,160,11.0,14.0,50,0.00,,,0.00,0.000000,,2013-01-18 02:22:00,
2013-01-17 19:33:00,35.0,18.0,-100.00,SSE,160,11.0,14.0,50,0.00,,,0.00,0.000000,,2013-01-18 02:33:00,
2013-01-17 19:42:00,35.0,18.0,-100.00,SSE,160,11.0,14.0,50,0.00,,,0.00,0.000000,,2013-01-18 02:42:00,
2013-01-17 19:51:00,33.0,17.0,-100.00,SSE,163,9.0,14.0,52,0.00,,,0.00,0.000000,,2013-01-18 02:51:00,
2013-01-17 20:23:00,33.0,17.0,-100.00,SSE,163,9.0,14.0,52,0.00,,,0.00,0.000000,,2013-01-18 03:23:00,
2013-01-17 20:33:00,33.0,17.0,-100.00,SSE,163,9.0,14.0,52,0.00,,,0.00,0.000000,,2013-01-18 03:33:00,
2013-01-17 20:42:00,33.0,17.0,-100.00,SSE,163,9.0,14.0,52,0.00,,,0.00,0.000000,,2013-01-18 03:42:00,
2013-01-17 20:51:00,32.0,16.0,-100.00,SSE,165,10.0,13.0,51,0.00,,,0.00,0.000000,,2013-01-18 03:51:00,
2013-01-17 21:12:00,32.0,16.0,-100.00,SSE,165,10.0,13.0,51,0.00,,,0.00,0.000000,,2013-01-18 04:12:00,
2013-01-17 21:22:00,32.0,16.0,-100.00,SSE,165,10.0,13.0,51,0.00,,,0.00,0.000000,,2013-01-18 04:22:00,
2013-01-17 21:33:00,32.0,16.0,-100.00,SSE,165,10.0,13.0,51,0.00,,,0.00,0.000000,,2013-01-18 04:33:00,
2013-01-17 21:42:00,32.0,16.0,-100.00,SSE,165,10.0,13.0,51,0.00,,,0.00,0.000000,,2013-01-18 04:42:00,
2013-01-17 21:51:00,32.0,15.0,-100.00,SSE,163,11.0,14.0,50,0.00,,,0.00,0.000000,,2013-01-18 04:51:00,
2013-01-17 22:12:00,32.0,15.0,-100.00,SSE,163,11.0,14.0,50,0.00,,,0.00,0.000000,,2013-01-18 05:12:00,
2013-01-17 22:22:00,32.0,15.0,-100.00,SSE,163,11.0,14.0,50,0.00,,,0.00,0.000000,,2013-01-18 05:22:00,
2013-01-17 22:33:00,32.0,15.0,-100.00,SSE,163,11.0,14.0,50,0.00,,,0.00,0.000000,,2013-01-18 05:33:00,
2013-01-17 22:42:00,32.0,15.0,-100.00,SSE,163,11.0,14.0,50,0.00,,,0.00,0.000000,,2013-01-18 05:42:00,
2013-01-17 22:51:00,31.0,14.0,-100.00,SSE,167,15.0,18.0,48,0.00,,,0.00,0.000000,,2013-01-18 05:51:00,
2013-01-17 23:12:00,31.0,14.0,-100.00,SSE,167,15.0,18.0,48,0.00,,,0.00,0.000000,,2013-01-18 06:12:00,
2013-01-17 23:22:00,31.0,14.0,-100.00,SSE,167,15.0,18.0,48,0.00,,,0.00,0.000000,,2013-01-18 06:22:00,
2013-01-17 23:33:00,31.0,14.0,-100.00,SSE,167,15.0,18.0,48,0.00,,,0.00,0.000000,,2013-01-18 06:33:00,
2013-01-17 23:43:00,31.0,14.0,-100.00,SSE,167,15.0,18.0,48,0.00,,,0.00,0.000000,,2013-01-18 06:43:00,
2013-01-17 23:51:00,32.0,13.0,-100.00,SSE,166,14.0,19.0,45,0.00,,,0.00,0.000000,,2013-01-18 06:51:00,